#timestamp,LO_Frequency,Hit,StdDev 
1524344415.2,286046996.9,N
1524344435.0,286046996.5,Y
1524344435.9,286046996.5,P
1524344455.8,286046998.1,N
1524344475.6,286046998.4,N
1524344495.4,286046998.6,N
1524344515.3,286046998.6,N
1524344535.1,286046998.4,N
1524344555.8,286047000.8,N
1524344575.7,286046998.2,N
1524344595.5,286047000.8,N
1524344615.4,286046998.1,N
1524344635.2,286046999.1,N
1524344655.0,286046998.3,N
1524344655.9,286046998.3,N
1524344675.8,286046998.7,N
1524344695.6,286047011.9,Y
1524344715.4,286046999.4,P
1524344735.3,286046998.8,P
1524344755.1,286046998.1,P
1524344775.9,286046998.2,Y
1524344795.7,286047002.2,P
1524344815.5,286047002.8,N
1524344835.4,286047002.1,N
1524344855.2,286046999.7,N
1524344875.1,286047002.3,N
1524344876.0,286047002.3,N
1524344895.8,286047002.6,N
1524344915.6,286047002.0,N
1524344935.5,286047000.3,N
1524344955.3,286047000.1,N
1524344975.1,286047001.7,N
1524344995.9,286047001.5,N
1524345015.7,286047010.6,Y
1524345035.6,286047007.9,P
1524345055.4,286047006.8,N
1524345075.2,286047006.0,N
1524345095.1,286047004.2,N
1524345096.0,286047004.2,N
1524345115.8,286046999.9,N
1524345135.6,286047001.1,N
1524345155.5,286046996.7,N
1524345175.3,286046995.0,N
1524345195.2,286046995.4,N
1524345215.9,286046995.3,N
1524345235.7,286046997.5,N
1524345255.6,286046997.0,N
1524345275.4,286046999.3,N
1524345295.2,286047000.8,N
1524345315.1,286047001.0,N
1524345316.0,286047001.0,N
1524345335.8,286047001.2,N
1524345355.7,286047001.1,N
1524345375.5,286046998.1,N
1524345395.3,286046999.3,N
1524345415.2,286046999.1,N
1524345435.0,286046997.1,N
1524345435.9,286046997.1,N
1524345455.8,286046996.7,N
1524345475.6,286046996.7,N
1524345495.4,286046999.6,N
1524345515.3,286046997.0,N
1524345535.1,286046998.7,N
1524345555.8,286046999.1,N
1524345575.7,286046996.7,N
1524345595.5,286046996.7,N
1524345615.4,286046997.9,N
1524345635.2,286046998.0,N
1524345655.0,286046995.1,N
1524345655.9,286046995.1,N
1524345675.8,286046995.1,N
1524345695.6,286046998.0,N
1524345715.5,286046998.0,N
1524345735.3,286046995.0,N
1524345755.1,286046997.7,N
1524345775.9,286046995.1,N
1524345795.7,286046997.5,N
1524345815.5,286046996.7,N
1524345835.4,286046998.6,N
1524345855.2,286046999.0,N
1524345875.0,286046996.8,N
1524345876.0,286046996.8,N
1524345895.8,286046997.2,N
1524345915.6,286046995.2,Y
1524345935.5,286046998.9,P
1524345955.3,286046999.3,N
1524345975.1,286046999.2,N
1524345995.9,286046998.8,N
1524346015.7,286046998.9,N
1524346035.6,286047000.8,N
1524346055.4,286047002.6,N
1524346075.2,286047004.0,N
1524346095.1,286047002.4,N
1524346096.0,286047002.4,N
1524346115.8,286047002.2,N
1524346135.7,286047001.5,N
1524346155.5,286047003.7,N
1524346175.3,286046999.7,N
1524346195.2,286047000.6,N
1524346215.0,286047001.2,N
1524346215.9,286047001.2,N
1524346235.7,286046998.5,N
1524346255.6,286047000.4,N
1524346275.4,286047001.0,N
1524346295.3,286046999.1,N
1524346315.1,286046999.0,N
1524346316.0,286046999.0,N
1524346335.8,286046998.4,N
1524346355.7,286047000.5,N
1524346375.5,286047002.7,N
1524346395.3,286047003.1,N
1524346415.2,286047003.7,N
1524346435.0,286047004.2,N
1524346435.9,286047004.2,N
1524346455.8,286047001.6,N
1524346475.6,286047004.4,N
1524346495.4,286047002.1,N
1524346515.3,286047001.8,N
1524346535.1,286047001.4,N
1524346555.9,286047001.7,N
1524346575.7,286046999.7,N
1524346595.5,286047002.6,N
1524346615.4,286047002.3,N
1524346635.2,286047002.0,N
1524346655.0,286047001.7,N
1524346655.9,286047001.7,N
1524346675.8,286047002.1,N
1524346695.6,286047001.5,N
1524346715.5,286046999.8,N
1524346735.3,286047002.6,N
1524346755.1,286047002.5,N
1524346775.9,286047004.4,N
1524346795.7,286047002.5,N
1524346815.5,286047001.3,N
1524346835.4,286047003.7,N
1524346855.2,286047004.3,N
1524346875.1,286047000.0,N
1524346876.0,286047000.0,N
1524346895.8,286047001.1,N
1524346915.6,286047000.6,N
1524346935.5,286047002.4,N
1524346955.3,286047004.0,N
1524346975.2,286047004.3,Y
1524346995.9,286047000.6,P
1524347015.7,286047000.7,N
1524347035.6,286047002.8,P
1524347055.4,286047002.8,N
1524347075.2,286047000.9,N
1524347095.1,286046999.3,N
1524347096.0,286046999.3,N
1524347115.8,286046996.6,N
1524347135.7,286046999.2,N
1524347155.5,286046999.1,N
1524347175.3,286046998.8,N
1524347195.2,286047000.5,N
1524347215.0,286047000.9,N
1524347215.9,286047000.9,N
1524347235.8,286047001.1,N
1524347255.6,286046998.1,N
1524347275.4,286047001.1,N
1524347295.3,286046998.6,N
1524347315.1,286046999.2,N
1524347335.8,286046998.7,N
1524347355.7,286046998.9,N
1524347375.5,286047001.2,N
1524347395.4,286046998.7,N
1524347415.2,286047000.9,N
1524347435.0,286047000.4,N
1524347435.9,286047000.4,N
1524347455.8,286047002.7,N
1524347475.6,286046999.8,N
1524347495.4,286047000.4,N
1524347515.3,286047002.5,N
1524347535.1,286047002.3,N
1524347555.9,286047002.5,N
1524347575.7,286047000.1,N
1524347595.5,286047000.9,N
1524347615.4,286046998.8,N
1524347635.2,286046998.6,N
1524347655.1,286046998.9,N
1524347656.0,286046998.9,N
1524347675.8,286046998.3,N
1524347695.6,286046998.4,N
1524347715.5,286046999.0,N
1524347735.3,286047002.2,N
1524347755.1,286046998.2,N
1524347775.9,286047000.5,N
1524347795.7,286047002.3,N
1524347815.6,286047002.3,N
1524347835.4,286047000.9,N
1524347855.2,286047001.0,N
1524347875.1,286046999.8,N
1524347876.0,286046999.8,N
1524347895.8,286047000.9,N
1524347915.6,286046997.1,N
1524347935.5,286046998.1,N
1524347955.3,286047002.7,N
1524347975.2,286047002.1,N
1524347995.9,286047002.2,N
